Dewpoint
65 62 55 51 45 41 35 28 14 18 13 9 13 14 2 17 21 16 14 18 14 47 56 58 57 52 46 43 43 57 58 53 53 48 47 64 66 67 68 70 71 71 70 70 71 71 72 73 72 72 72 72 72 72 72 72 72 72 72 72 72 72 72 72 72 72 72 71 71 71 71 70 70 70 70 70 70 71 71 71 72 71 70 69 69 69 69 68 68 69 69 69 69 69 69 69 68
60 53 50 50 44 36 27 26 19 18 16 8 8 15 12 17 18 14 11 10 11 16 22 42 59 59 60 60 59 58 58 61 61 62 63 65 67 68 69 70 70 70 70 70 70 70 70 72 72 72 72 72 71 71 71 71 72 72 72 72 72 72 72 72 72 72 72 72 72 71 71 71 71 70 70 70 71 70 71 70 70 70 70 69 68 68 68 69 69 70 70 70 70 70 69 69 69
52 48 45 45 37 34 31 24 3 20 4 -2 2 11 13 10 16 15 14 13 13 15 20 23 50 59 58 57 52 57 56 62 62 63 64 66 65 68 70 70 70 70 71 71 70 69 69 71 72 72 72 71 71 71 71 71 71 71 72 71 72 72 72 72 72 72 72 72 72 71 71 71 71 71 71 71 70 71 71 70 69 69 69 69 68 68 69 70 70 70 70 70 70 69 69 69 69
51 51 44 41 28 32 23 19 15 14 -3 1 4 4 11 8 7 9 11 12 14 20 23 27 51 61 58 53 59 59 60 60 63 63 63 64 65 69 70 70 71 70 71 70 69 69 70 72 72 72 71 71 71 71 71 71 71 71 71 71 72 72 72 72 72 72 72 71 71 72 71 71 71 71 71 71 71 71 70 70 69 70 69 68 68 69 69 69 70 70 69 69 69 69 69 68 69
46 50 45 39 31 26 21 21 17 13 -1 12 -4 3 14 12 10 12 13 20 23 23 26 40 56 61 62 61 61 57 58 62 63 63 63 66 67 70 70 70 70 70 70 70 69 69 70 72 72 72 71 71 71 71 71 71 71 71 72 72 72 72 72 72 72 71 71 71 72 71 71 71 71 71 71 71 70 70 70 70 70 69 68 68 68 70 70 70 69 69 69 70 69 69 69 68 68
40 42 45 43 30 30 22 17 17 12 6 10 2 4 13 15 16 17 20 23 23 22 52 49 49 58 59 61 62 60 62 59 63 64 65 66 68 70 70 71 70 70 70 70 69 69 70 72 72 72 71 71 71 71 71 71 71 71 71 71 72 72 72 72 71 71 71 71 71 71 71 71 71 71 71 70 70 70 69 69 69 68 68 68 69 69 69 69 69 69 69 69 69 69 69 69 69
36 39 38 30 27 28 21 14 9 12 11 13 10 8 9 15 19 22 21 20 22 33 60 57 60 59 58 61 62 63 64 64 63 64 66 67 68 69 69 70 70 69 69 70 69 69 71 72 71 71 72 71 71 71 71 71 71 71 71 71 71 72 71 71 71 71 71 71 71 71 71 71 70 70 70 70 70 70 69 69 68 69 69 69 69 69 69 70 70 69 69 68 69 69 69 69 69
38 36 35 27 23 23 20 21 17 17 12 17 18 19 21 22 22 22 19 19 18 13 44 60 60 58 60 62 59 63 65 65 65 66 67 68 68 69 70 69 69 69 69 69 70 69 72 71 71 72 72 72 71 71 71 70 71 71 72 72 72 71 71 71 71 71 71 70 70 70 70 70 70 71 70 71 71 70 70 69 69 69 69 69 69 70 70 69 69 69 69 69 69 69 69 69 69
29 27 29 23 20 20 19 16 15 20 19 19 19 23 32 25 22 22 18 19 19 19 16 59 60 52 57 61 61 63 65 66 67 68 67 68 69 69 70 69 68 68 69 69 69 71 71 72 72 72 72 72 71 71 71 71 72 72 72 71 71 71 71 71 71 71 71 71 71 70 70 71 70 70 70 71 71 70 70 69 69 69 69 69 69 70 70 69 69 69 69 69 69 69 69 68 69
28 28 24 23 20 12 14 11 11 8 14 15 13 14 16 16 15 15 15 17 17 34 45 60 59 53 60 60 61 63 64 67 67 67 67 68 68 69 70 70 70 69 69 69 69 69 70 72 72 72 72 72 72 72 72 72 72 72 71 71 72 72 71 71 71 71 71 71 71 71 71 71 70 70 70 70 70 70 70 69 70 69 69 69 69 69 69 69 69 69 69 69 69 69 69 68 69
26 23 26 17 15 12 7 1 10 12 11 15 17 18 17 15 16 16 19 27 17 13 60 58 56 58 59 61 62 65 67 67 66 66 67 68 69 70 69 70 70 70 68 69 70 70 69 70 73 72 72 72 72 72 72 72 72 72 72 72 71 71 71 71 71 71 71 71 71 70 70 70 70 70 69 70 70 70 70 70 70 70 69 70 70 70 69 70 69 69 69 69 68 69 69 69 69
23 23 18 20 15 7 8 8 11 12 17 19 13 14 13 12 13 40 46 32 27 29 58 58 56 60 59 60 62 64 66 67 67 67 67 68 68 70 69 69 69 69 70 70 70 70 69 70 70 72 73 73 72 72 72 72 72 72 72 72 71 71 71 71 71 71 71 71 71 71 70 70 69 69 69 70 70 70 70 70 70 70 70 70 70 70 70 69 69 69 69 69 69 69 69 69 69
24 21 18 14 12 15 18 16 12 22 16 10 10 11 11 25 53 53 36 22 48 49 57 59 59 59 58 60 63 65 65 66 67 67 68 68 69 69 70 70 70 70 69 70 70 69 69 69 69 69 71 73 72 72 72 72 72 72 71 72 71 71 71 71 71 71 71 71 71 71 70 70 70 69 69 69 70 70 70 69 70 70 70 70 70 70 70 70 69 69 69 69 69 69 69 69 69
23 23 18 7 19 17 15 11 14 9 2 10 12 11 11 50 56 55 42 52 56 54 59 60 60 61 60 61 62 62 64 67 67 68 68 68 69 69 69 70 70 70 70 70 69 69 69 68 69 70 71 71 72 72 72 72 72 71 71 71 71 71 71 71 71 71 71 71 70 70 70 70 69 70 70 69 70 70 69 69 69 70 70 70 70 70 70 69 69 69 69 69 68 68 68 68 69
21 23 22 20 16 15 14 9 8 9 5 12 12 11 11 41 56 59 57 56 58 61 62 62 61 57 58 59 60 62 64 66 67 67 67 68 69 69 69 70 70 70 69 69 69 68 68 68 69 70 71 71 71 71 70 71 72 71 71 71 71 71 71 71 71 71 71 71 70 70 70 70 70 70 70 70 69 69 70 70 69 69 69 70 70 69 69 69 69 68 68 67 67 67 67 68 69
26 20 22 16 9 12 9 12 12 10 7 13 12 12 11 11 51 57 60 60 60 62 62 58 62 59 59 60 61 62 64 66 67 67 67 67 68 69 69 69 70 70 69 69 68 69 69 68 69 69 70 70 71 71 70 70 72 72 72 71 71 71 71 71 71 71 70 70 70 69 69 70 70 70 70 69 70 70 69 69 69 69 69 69 69 68 69 68 67 67 67 67 66 67 68 68 68
26 25 18 19 10 11 11 10 12 4 12 13 13 12 10 11 25 60 62 62 60 61 62 62 62 63 60 61 62 63 65 67 67 66 66 66 67 68 69 70 69 69 69 69 69 69 70 69 69 69 70 70 71 70 70 70 71 71 71 71 71 71 71 69 69 69 69 69 69 70 70 71 71 71 69 68 69 69 70 69 69 69 69 69 68 68 67 66 67 67 67 66 66 67 68 68 68
25 22 20 16 13 10 12 10 12 11 10 12 14 12 11 12 12 38 60 60 60 61 61 62 63 64 63 63 64 64 65 66 66 64 64 64 65 66 66 68 68 66 68 68 69 69 69 69 68 69 69 70 71 70 70 70 72 71 70 70 70 71 69 69 70 70 69 70 69 70 71 71 71 70 69 68 68 69 68 69 69 69 68 68 67 67 67 67 67 66 66 66 66 65 65 66 68
24 24 21 8 14 11 17 14 15 13 13 16 14 14 12 13 12 21 49 58 58 58 60 61 62 63 64 64 64 64 65 65 65 64 63 63 63 64 65 66 66 66 68 67 68 68 69 68 68 68 69 70 70 70 70 70 71 71 70 70 70 69 69 70 71 69 69 70 70 70 71 71 70 70 69 68 68 68 68 69 68 67 67 66 66 67 67 67 67 66 66 66 65 64 64 65 65
29 23 16 16 17 15 17 16 14 14 15 16 15 15 12 14 12 24 45 54 58 57 59 60 61 62 62 63 64 64 64 64 64 64 63 63 62 63 64 65 64 65 66 66 67 68 68 68 68 68 68 69 70 70 70 69 70 71 71 71 71 72 71 70 70 70 70 71 70 70 70 69 69 72 68 69 69 68 68 67 67 67 67 68 68 67 67 68 67 66 65 65 64 64 64 62 62
27 23 17 18 18 18 18 16 17 18 14 17 16 15 15 13 12 31 49 50 55 58 59 60 60 62 62 63 63 64 63 63 63 63 63 63 63 64 64 64 64 64 65 67 67 67 68 68 68 68 68 69 69 69 70 69 70 71 69 71 71 71 70 70 70 70 71 70 69 70 69 69 70 70 70 70 70 67 67 67 67 66 66 66 66 66 66 65 65 63 64 64 64 63 62 64 63
26 24 22 19 27 23 26 24 21 19 17 17 17 16 14 13 13 36 43 32 26 43 58 60 61 62 62 63 63 64 63 63 62 62 62 63 63 63 64 65 66 66 66 66 66 67 69 68 68 68 68 68 69 69 69 69 70 69 69 70 70 70 70 70 70 70 70 70 70 70 70 69 70 70 70 70 69 67 66 65 66 67 67 67 67 66 65 66 65 64 64 63 63 64 64 65 65
22 24 26 28 27 25 25 23 23 20 21 19 17 14 12 11 10 10 28 31 39 57 58 60 62 63 63 64 63 63 63 62 62 61 62 62 63 64 64 65 65 65 66 66 67 67 69 68 68 68 67 69 68 68 69 69 68 68 69 69 69 69 70 69 70 70 69 69 69 69 69 69 70 70 70 70 68 67 66 66 65 66 66 66 68 67 66 66 66 65 66 66 65 64 63 63 64
24 21 27 26 24 24 24 24 23 22 19 18 16 12 10 9 6 32 40 49 52 59 60 60 62 63 63 63 64 63 63 61 62 62 63 63 63 63 64 64 65 66 66 67 68 68 69 68 68 67 68 69 68 68 68 68 68 69 69 70 69 69 69 68 69 69 69 69 70 69 69 69 69 69 68 68 68 67 66 66 66 65 66 66 67 67 66 66 66 66 66 66 62 62 61 64 63
25 24 24 24 24 25 25 23 21 19 17 16 14 10 8 9 7 18 13 47 60 61 61 62 62 63 63 63 63 63 62 62 62 63 63 63 64 64 65 65 66 66 66 67 67 67 69 69 69 68 68 68 68 68 68 68 68 68 68 68 68 69 68 68 68 69 68 68 69 68 69 69 68 67 68 67 68 67 67 67 66 65 66 66 66 66 66 67 66 66 66 64 65 65 66 65 64
25 25 26 25 24 25 24 22 20 17 14 13 10 8 7 7 13 19 17 59 62 62 62 62 62 62 62 63 63 63 62 62 63 62 62 63 63 64 64 64 65 65 67 67 67 68 68 68 68 68 68 68 68 68 68 67 67 68 68 68 69 69 68 68 68 68 69 69 68 68 69 69 68 67 67 67 67 67 68 68 67 66 66 66 67 66 66 66 66 65 66 65 62 66 65 65 66
24 25 25 24 23 20 16 13 12 10 9 10 8 8 7 11 19 7 60 61 61 61 61 62 62 62 62 63 63 63 61 61 61 62 63 63 63 64 64 65 65 65 66 66 68 68 68 68 67 68 68 69 69 67 68 68 68 67 68 69 68 68 67 68 68 68 68 68 68 68 68 68 68 68 67 67 67 67 67 67 67 67 67 67 67 66 67 66 66 66 66 66 66 66 66 66 66
21 21 16 13 12 11 11 11 11 10 9 10 8 7 7 8 22 14 60 61 61 60 61 62 62 62 63 62 62 60 60 60 61 62 61 62 62 63 64 64 65 65 66 66 67 68 68 67 68 68 68 69 68 67 67 67 68 68 68 69 68 68 68 67 67 68 67 68 68 68 68 68 68 68 67 67 67 67 67 68 67 67 67 67 67 67 67 66 66 65 65 66 65 64 65 65 66
15 15 13 11 12 11 13 11 11 10 9 9 9 6 6 7 6 31 60 60 60 60 59 62 62 62 63 62 61 60 59 60 60 62 62 62 62 63 64 65 64 64 65 66 67 67 67 67 68 68 68 68 67 67 67 67 68 67 67 67 67 67 67 67 67 67 67 67 68 68 68 68 68 67 67 67 67 66 66 66 66 66 66 66 66 66 66 66 66 65 65 65 65 64 64 65 64
15 12 11 11 11 10 10 13 10 8 8 9 8 7 6 6 8 20 61 59 59 59 59 61 61 62 62 62 60 60 59 60 60 61 61 63 64 64 63 64 65 64 64 67 66 66 67 68 68 68 68 67 67 67 67 67 67 67 67 67 67 68 67 67 67 67 67 67 68 68 68 67 67 68 67 67 67 66 67 66 66 66 66 66 66 66 66 65 65 65 64 63 63 63 63 64 63
14 13 11 13 11 9 11 13 12 10 10 9 7 8 6 6 9 28 60 59 58 58 58 59 60 61 62 61 60 59 60 60 60 62 63 63 64 64 63 64 65 65 65 67 66 66 67 67 67 67 67 67 67 67 67 66 66 66 66 66 67 67 67 67 67 67 67 67 67 67 67 67 67 67 67 67 67 66 66 66 65 65 66 66 66 66 66 65 65 65 64 63 64 62 63 63 62
14 11 12 12 10 10 12 20 16 9 9 9 6 12 5 7 9 53 60 59 58 57 58 58 60 60 62 61 59 60 61 61 62 63 63 63 63 64 64 64 65 65 66 66 66 67 67 67 68 67 67 67 67 67 67 67 66 67 67 67 67 67 67 66 67 67 66 66 67 67 67 67 67 67 67 66 66 65 65 65 65 66 66 66 65 65 65 64 65 64 64 64 62 62 62 62 62
15 13 19 12 12 10 10 11 10 10 9 10 7 4 6 8 25 48 60 59 59 58 58 58 59 60 61 61 59 60 60 60 60 60 61 62 63 63 64 64 65 65 66 66 66 66 66 67 67 67 66 67 66 66 67 67 66 67 67 67 66 67 66 66 67 66 66 66 66 66 66 67 67 67 66 66 67 66 66 65 65 66 66 65 65 65 64 65 65 64 64 64 63 62 61 62 62
16 15 15 15 11 12 7 12 11 13 10 10 9 8 9 11 11 44 59 59 59 58 57 58 59 60 61 60 59 59 60 60 59 59 60 62 62 64 64 64 65 66 66 66 66 66 65 66 67 67 67 66 66 66 66 66 67 67 67 66 67 66 66 66 66 66 66 65 65 65 66 66 66 66 66 66 66 66 66 65 66 66 66 65 65 65 65 65 65 65 64 64 63 62 61 61 61
16 17 16 12 15 15 11 9 9 12 11 11 14 12 11 10 16 39 57 59 59 58 57 58 59 60 61 60 60 59 60 60 60 60 60 61 63 63 64 65 65 66 66 66 66 66 67 67 67 67 66 66 66 66 66 66 67 67 66 66 66 66 66 66 66 66 66 66 65 65 65 66 65 66 66 66 66 65 65 65 66 66 66 65 64 64 64 65 64 64 64 63 63 62 63 62 62
10 12 13 12 14 11 10 12 13 12 11 9 11 11 11 15 16 36 56 58 58 59 58 58 59 59 60 60 60 59 59 60 61 61 60 62 63 64 64 64 65 65 66 66 66 66 66 66 65 66 66 66 66 66 66 66 65 65 65 66 65 65 65 65 66 66 66 65 65 64 65 65 64 65 65 66 66 65 65 65 65 66 66 65 64 64 64 63 64 64 64 63 62 62 62 62 62
12 12 13 13 12 12 12 12 12 11 11 12 13 16 15 16 16 26 48 57 58 58 59 58 58 59 60 60 60 60 60 60 61 61 62 62 63 63 65 65 65 66 66 66 66 65 65 65 64 64 65 65 65 65 65 65 65 65 65 65 64 65 64 65 65 65 65 65 65 64 64 64 64 64 65 65 66 65 65 66 66 65 65 65 64 64 64 64 64 64 63 63 62 62 62 62 62
13 14 14 15 13 14 12 13 13 12 18 11 23 17 17 18 22 20 33 53 55 57 58 58 58 58 59 60 60 60 60 61 61 62 63 63 62 64 65 66 65 64 65 65 65 65 65 64 64 64 64 65 65 65 65 65 65 64 64 64 64 64 63 63 64 65 65 65 65 65 65 64 65 65 66 66 66 65 65 65 65 65 65 65 64 64 64 64 64 64 63 62 62 61 61 62 62
18 16 16 15 14 14 14 15 15 14 15 13 19 16 15 19 21 23 23 45 53 56 57 57 58 57 58 59 60 60 60 60 61 61 63 62 63 64 64 65 65 65 65 65 66 65 64 63 64 63 64 65 66 66 65 65 66 66 65 65 64 63 64 65 64 65 65 64 65 65 65 65 64 65 66 66 66 65 65 65 65 65 65 65 64 64 64 64 64 63 63 62 61 61 62 62 62
20 18 17 15 14 13 12 20 20 19 17 18 17 16 19 25 29 26 24 33 50 55 57 58 58 58 57 58 59 59 59 60 60 61 62 62 62 63 64 64 64 64 64 65 65 64 64 63 63 63 64 65 65 65 65 66 65 66 66 66 66 65 64 65 65 65 65 65 64 65 65 66 65 65 65 64 64 65 65 65 65 65 65 65 64 64 64 64 64 64 63 63 62 60 60 60 62
26 22 15 13 13 12 11 14 22 24 24 29 19 21 20 26 22 21 25 26 38 51 56 57 57 58 59 59 60 60 59 59 60 61 62 62 62 62 63 64 64 64 64 64 65 64 64 63 63 63 63 63 64 65 65 64 65 65 65 65 65 65 65 64 64 63 64 64 64 65 65 66 66 65 65 64 64 65 65 65 65 65 65 65 64 64 64 64 63 64 63 63 62 61 60 61 62
20 27 19 15 15 14 14 20 15 15 15 26 19 14 16 26 23 21 21 27 24 35 51 54 55 57 58 58 59 59 60 60 60 60 61 62 62 63 63 64 63 63 64 64 65 65 64 62 62 62 63 63 64 65 65 65 64 64 63 63 63 62 62 61 62 61 62 63 62 64 64 65 65 65 65 64 64 64 65 65 65 64 65 64 64 64 64 64 63 64 63 63 62 63 61 60 60
18 15 22 17 15 17 15 16 15 11 13 23 27 18 15 24 19 24 34 39 34 32 42 49 54 56 56 57 58 58 59 59 60 60 61 61 62 63 63 63 63 63 63 64 64 65 65 63 62 63 63 63 63 64 65 65 64 64 64 63 63 62 61 61 63 64 63 62 64 64 64 65 64 64 65 65 65 65 65 64 65 64 64 64 64 64 65 64 63 62 63 63 63 62 62 60 60
12 24 21 18 16 17 19 15 12 11 25 29 24 18 17 17 20 28 40 44 39 34 35 45 52 54 55 56 57 57 57 59 59 59 61 61 62 62 62 63 63 63 63 64 64 65 64 64 63 63 63 63 63 64 65 65 64 64 64 64 64 63 62 62 64 64 65 64 64 64 64 64 65 65 65 64 65 65 64 64 64 64 64 63 63 63 64 64 64 63 64 64 63 63 63 62 62
13 24 18 16 15 18 17 14 17 19 21 16 22 22 18 16 21 30 43 36 39 38 37 42 49 54 55 55 56 57 57 58 59 59 60 62 62 62 63 62 62 63 63 63 63 64 64 64 64 63 63 63 63 64 64 65 65 65 65 64 63 63 63 63 62 63 63 63 64 63 63 62 63 64 64 65 65 64 65 64 65 64 64 63 62 62 64 64 64 64 64 64 64 64 63 64 63
16 21 21 20 19 19 16 17 16 22 20 16 20 22 14 13 23 25 43 40 38 40 43 44 47 52 55 55 56 57 57 59 59 60 61 62 62 63 63 62 62 62 62 63 63 64 64 63 63 63 62 63 62 64 65 65 65 64 64 64 64 63 62 62 62 62 62 63 63 63 63 62 61 62 63 64 65 64 64 64 64 64 65 64 63 62 64 65 64 64 64 65 65 65 64 64 63
22 19 17 17 18 22 23 24 21 21 16 17 21 23 16 11 15 22 33 35 42 43 45 47 49 51 54 55 56 57 57 59 60 61 61 62 62 62 61 61 61 61 62 63 63 63 63 63 63 63 63 63 63 64 64 63 63 64 64 64 64 63 63 62 61 62 61 62 62 62 62 61 61 61 62 63 65 64 65 64 64 64 64 64 63 63 64 63 65 65 64 64 65 65 64 64 64
16 16 15 16 18 19 19 19 22 16 13 19 16 19 18 11 15 24 36 38 40 44 45 45 48 50 53 55 56 57 58 60 60 60 61 60 60 60 60 60 60 61 61 62 62 62 62 62 62 62 62 62 62 62 63 62 63 63 64 64 63 63 62 61 61 61 60 61 62 61 61 60 60 60 61 62 63 64 64 64 64 64 63 64 64 64 64 63 64 63 64 64 63 63 64 63 63
14 16 14 13 14 19 13 14 13 12 13 19 19 17 15 14 18 27 37 44 47 48 48 48 47 50 53 54 57 58 59 60 60 60 59 59 59 60 60 60 60 60 61 61 62 61 61 62 61 62 61 61 61 61 62 62 62 63 63 63 63 63 62 62 61 61 60 60 60 60 59 58 59 59 60 61 63 64 63 63 63 63 63 64 64 63 63 63 63 63 63 63 63 63 62 63 62
14 13 17 15 11 11 8 10 14 14 17 19 18 21 13 19 22 43 46 48 49 51 51 51 50 50 54 55 58 59 60 60 59 59 59 59 60 60 60 59 60 60 60 60 59 59 60 61 61 61 60 60 62 61 61 62 63 62 63 63 63 62 62 62 61 60 61 60 61 60 59 58 58 59 60 62 62 62 63 63 64 64 63 63 62 63 63 62 63 60 62 62 62 63 63 64 63
13 15 12 17 14 10 11 10 10 11 11 20 24 17 14 14 28 42 48 50 51 51 51 51 51 52 57 57 59 60 60 59 59 59 59 59 60 60 60 60 59 59 59 59 60 60 60 61 61 61 60 60 60 60 60 61 61 61 62 62 62 62 61 61 60 61 61 60 60 61 60 60 58 59 59 61 61 62 62 62 63 62 61 61 60 61 60 60 61 59 60 61 61 61 62 62 62
15 15 14 18 17 24 10 18 17 15 13 15 20 17 26 24 39 45 50 50 50 52 53 54 54 56 58 58 58 59 59 58 58 59 60 60 60 61 61 59 58 58 59 60 60 60 61 61 61 61 59 58 58 59 59 59 60 59 60 61 62 62 61 61 60 60 60 61 61 60 60 61 60 59 60 60 61 61 61 61 60 60 59 59 58 58 58 57 59 59 58 60 58 56 60 60 60
18 12 14 15 20 18 23 22 25 23 17 13 26 29 30 35 37 47 48 48 49 51 54 54 56 57 57 56 57 58 58 58 57 58 58 59 60 60 60 58 58 59 59 60 60 61 61 61 61 59 58 58 58 58 58 59 58 59 59 60 61 61 61 60 60 60 60 61 61 61 60 60 60 60 60 60 60 61 61 61 59 58 58 58 58 58 57 57 57 57 57 57 57 56 57 56 58
14 15 15 21 19 23 21 12 18 15 12 15 28 30 32 26 30 44 45 47 47 49 50 50 51 52 51 52 53 54 53 52 53 56 59 59 60 60 59 59 59 59 59 60 60 61 61 61 60 58 58 59 59 58 59 59 57 57 58 59 60 60 60 61 60 60 60 59 60 60 60 58 59 59 59 59 60 60 60 59 59 58 58 57 58 57 55 56 56 55 55 55 55 56 55 55 56
14 15 17 14 16 15 20 19 12 12 12 12 24 28 29 30 30 41 43 45 47 47 48 47 48 50 51 52 52 53 54 53 54 57 57 59 59 60 59 59 60 60 60 60 61 61 61 61 60 59 59 59 60 60 60 59 58 58 59 59 60 59 60 60 60 60 59 59 59 59 59 59 59 58 57 58 59 58 59 58 58 57 56 56 56 57 56 55 55 55 55 53 55 55 54 54 55
18 18 15 22 21 25 14 16 22 18 9 16 19 25 19 31 38 43 44 45 47 46 47 47 49 50 51 51 52 53 54 54 55 57 57 58 59 60 60 60 59 59 59 60 61 60 60 60 60 60 60 60 60 60 59 58 58 58 58 58 59 58 58 59 59 59 59 59 58 58 58 59 59 57 58 58 58 57 57 57 56 55 55 55 54 55 55 55 55 55 54 52 54 55 51 52 52
15 18 19 19 28 23 21 26 16 16 16 14 16 15 25 37 41 43 44 46 48 47 47 48 49 49 50 51 54 54 55 55 56 57 58 58 59 59 60 60 60 60 59 60 60 59 59 59 59 59 59 59 60 60 59 58 57 57 57 58 59 59 60 59 59 59 59 60 59 58 58 59 57 57 57 57 56 56 55 55 54 53 53 54 54 55 56 55 54 54 55 54 53 51 48 51 52
15 18 18 17 21 18 13 14 22 21 17 17 17 14 27 35 44 46 45 48 49 49 49 50 49 50 51 52 53 54 55 55 56 57 58 58 60 59 59 60 60 59 59 59 59 60 60 60 59 59 59 59 60 59 58 58 58 58 58 59 59 59 59 59 60 59 59 58 58 58 58 57 58 57 56 55 55 56 55 54 52 52 53 52 53 53 54 54 52 54 55 55 54 50 49 50 54